Location: Casco Volunteer Fire Department
(44.5576°N, 87.6146°W)
Time: 05:19:35
(UTC+00:00)

Landsat 7 - Pass Details

Date: 22 January 2026
Orbit: 680 x 682 km, 97.9° (Epoch: 7 February)

Event Time Altitude Azimuth Distance (km) Brightness Sun altitude
Rises 23:35:23 0° 176° (S) 3,028 7.3 -9.0°
Reaches altitude 10° 23:37:39 10° 180° (S) 2,117 6.5 -9.3°
Maximum altitude 23:42:13 59° 260° (W) 792 4.5 -10.1°
Drops below altitude 10° 23:46:49 10° 340° (NNW) 2,132 6.4 -10.9°
Sets 23:49:07 0° 344° (NNW) 3,052 7.1 -11.3°
